THY6649 LTFM-LROP

Flight info

Callsign THY6649
Flight time 0h 47m
Altitude 34000
Route IBLAX1D/35L IBLAX P727 BGS L622 GONGO DCT KOMAN DCT OBUGA
Aircraft B77W/H-SDE1E2E3FGHIJ2J3J4J5M1RWXY/LB1D1

Departure

Time 2026-05-04 18:21
Airport İstanbul Airport (LTFM)

Arrival

Time 2026-05-04 19:08
Airport Bucharest Henri Coandă International Airport (LROP)
Time Latitude Longitude Altitude Speed Heading
2026-05-04 17:57 41.26400 28.73552 339 ft 0 kts 74°
2026-05-04 18:10 41.26384 28.73452 339 ft 0 kts 149°
2026-05-04 18:11 41.26425 28.73432 339 ft 0 kts 161°
2026-05-04 18:12 41.26425 28.73433 339 ft 0 kts 161°
2026-05-04 18:13 41.26399 28.73444 339 ft 11 kts 161°
2026-05-04 18:13 41.26286 28.73492 337 ft 18 kts 169°
2026-05-04 18:13 41.26220 28.73292 336 ft 22 kts 268°
2026-05-04 18:14 41.26217 28.73124 336 ft 17 kts 269°
2026-05-04 18:14 41.26215 28.72939 336 ft 21 kts 269°
2026-05-04 18:14 41.26213 28.72747 339 ft 21 kts 269°
2026-05-04 18:15 41.26239 28.72533 334 ft 7 kts 338°
2026-05-04 18:15 41.26279 28.72524 334 ft 0 kts 359°
2026-05-04 18:16 41.26281 28.72524 335 ft 1 kts 359°
2026-05-04 18:17 41.26292 28.72524 335 ft 0 kts 359°
2026-05-04 18:17 41.26299 28.72524 336 ft 1 kts 359°
2026-05-04 18:17 41.26320 28.72523 334 ft 0 kts 359°
2026-05-04 18:18 41.26488 28.72519 334 ft 11 kts 359°
2026-05-04 18:18 41.26491 28.72519 334 ft 0 kts 359°
2026-05-04 18:18 41.26492 28.72519 334 ft 0 kts 359°
2026-05-04 18:19 41.26507 28.72519 335 ft 2 kts 359°
2026-05-04 18:19 41.26508 28.72519 335 ft 0 kts 359°
2026-05-04 18:20 41.26509 28.72519 335 ft 0 kts 359°
2026-05-04 18:20 41.26512 28.72518 336 ft 0 kts 359°
2026-05-04 18:20 41.26592 28.72517 338 ft 49 kts 359°
2026-05-04 18:21 41.27332 28.72500 363 ft 157 kts 359°
2026-05-04 18:21 41.28529 28.72487 1209 ft 175 kts
2026-05-04 18:21 41.29739 28.72462 2471 ft 170 kts
2026-05-04 18:21 41.31018 28.72474 2840 ft 199 kts
2026-05-04 18:22 41.32496 28.72494 3136 ft 224 kts
2026-05-04 18:22 41.34060 28.72505 3808 ft 230 kts
2026-05-04 18:22 41.35674 28.72510 4550 ft 234 kts
2026-05-04 18:22 41.37312 28.72511 5304 ft 235 kts
2026-05-04 18:23 41.38929 28.72109 5948 ft 242 kts 341°
2026-05-04 18:23 41.40457 28.71140 6695 ft 243 kts 339°
2026-05-04 18:23 41.41991 28.70154 7343 ft 247 kts 339°
2026-05-04 18:23 41.43557 28.69151 7989 ft 251 kts 339°
2026-05-04 18:24 41.45139 28.68137 8641 ft 254 kts 339°
2026-05-04 18:24 41.46746 28.67108 9287 ft 258 kts 339°
2026-05-04 18:24 41.48376 28.66063 9897 ft 262 kts 339°
2026-05-04 18:24 41.50040 28.64997 10362 ft 271 kts 339°
2026-05-04 18:25 41.51775 28.63888 10727 ft 281 kts 339°
2026-05-04 18:25 41.53559 28.62744 11174 ft 287 kts 339°
2026-05-04 18:25 41.55374 28.61581 11721 ft 291 kts 339°
2026-05-04 18:25 41.57195 28.60370 12230 ft 295 kts 333°
2026-05-04 18:26 41.58783 28.58541 12694 ft 308 kts 317°
2026-05-04 18:26 41.60205 28.56378 13326 ft 311 kts 316°
2026-05-04 18:26 41.61645 28.54206 13929 ft 313 kts 316°
2026-05-04 18:26 41.63111 28.52031 14452 ft 316 kts 317°
2026-05-04 18:27 41.64596 28.49845 14981 ft 319 kts 317°
2026-05-04 18:27 41.66100 28.47639 15490 ft 322 kts 317°
2026-05-04 18:27 41.67769 28.45686 15866 ft 320 kts 334°
2026-05-04 18:27 41.69848 28.44405 16097 ft 343 kts 341°
2026-05-04 18:28 41.72145 28.43174 16669 ft 363 kts 342°
2026-05-04 18:28 41.74524 28.41899 17590 ft 374 kts 342°
2026-05-04 18:28 41.76968 28.40569 18516 ft 383 kts 341°
2026-05-04 18:28 41.79453 28.39197 19425 ft 388 kts 341°
2026-05-04 18:29 41.81929 28.37817 20401 ft 393 kts 341°
2026-05-04 18:29 41.84468 28.36393 21344 ft 398 kts 341°
2026-05-04 18:29 41.87044 28.34945 22228 ft 405 kts 341°
2026-05-04 18:29 41.89659 28.33470 23108 ft 411 kts 340°
2026-05-04 18:30 41.94705 28.29521 24589 ft 430 kts 328°
2026-05-04 18:30 41.97146 28.27121 25215 ft 438 kts 327°
2026-05-04 18:30 41.99619 28.24663 25863 ft 445 kts 327°
2026-05-04 18:31 42.02155 28.22138 26548 ft 450 kts 327°
2026-05-04 18:31 42.04652 28.19657 27190 ft 456 kts 327°
2026-05-04 18:31 42.07260 28.17074 27809 ft 463 kts 327°
2026-05-04 18:31 42.09840 28.14526 28402 ft 469 kts 327°
2026-05-04 18:32 42.12484 28.11918 28992 ft 474 kts 327°
2026-05-04 18:32 42.15194 28.09246 29614 ft 479 kts 327°
2026-05-04 18:32 42.17866 28.06610 30232 ft 482 kts 326°
2026-05-04 18:32 42.20572 28.03936 30978 ft 480 kts 326°
2026-05-04 18:33 42.23246 28.01289 31883 ft 474 kts 326°
2026-05-04 18:33 42.25822 27.98737 32768 ft 468 kts 326°
2026-05-04 18:33 42.28441 27.96140 33507 ft 467 kts 326°
2026-05-04 18:33 42.31067 27.93537 34057 ft 468 kts 325°
2026-05-04 18:34 42.33694 27.90929 34054 ft 469 kts 325°
2026-05-04 18:34 42.38909 27.85744 34053 ft 463 kts 325°
2026-05-04 18:35 42.44094 27.80577 34067 ft 463 kts 325°
2026-05-04 18:35 42.48414 27.76265 34064 ft 464 kts 325°
2026-05-04 18:36 42.53614 27.71063 34072 ft 466 kts 325°
2026-05-04 18:36 42.58830 27.65834 34078 ft 467 kts 325°
2026-05-04 18:37 42.64066 27.60573 34085 ft 468 kts 325°
2026-05-04 18:37 42.69307 27.55296 34064 ft 469 kts 324°
2026-05-04 18:38 42.74544 27.50011 34063 ft 469 kts 324°
2026-05-04 18:38 42.79780 27.44717 34071 ft 469 kts 324°
2026-05-04 18:39 42.85014 27.39413 34077 ft 469 kts 324°
2026-05-04 18:39 42.90252 27.34094 34065 ft 469 kts 324°
2026-05-04 18:40 42.95489 27.28765 33832 ft 470 kts 323°
2026-05-04 18:40 42.98047 27.26153 33974 ft 460 kts 325°
2026-05-04 18:40 43.00586 27.23561 34012 ft 454 kts 325°
2026-05-04 18:41 43.03032 27.21062 34045 ft 453 kts 325°
2026-05-04 18:42 43.09236 27.14716 34061 ft 456 kts 325°
2026-05-04 18:43 43.14320 27.09503 34070 ft 457 kts 324°
2026-05-04 18:43 43.19331 27.04350 33560 ft 445 kts 324°
2026-05-04 18:43 43.21796 27.01811 33087 ft 440 kts 324°
2026-05-04 18:44 43.24151 26.99383 32601 ft 436 kts 324°
2026-05-04 18:44 43.25750 26.97733 32269 ft 433 kts 324°
2026-05-04 18:44 43.28961 26.94418 31602 ft 429 kts 324°
2026-05-04 18:44 43.31335 26.91965 31112 ft 426 kts 324°
2026-05-04 18:45 43.33696 26.89523 30618 ft 423 kts 323°
2026-05-04 18:45 43.36036 26.87099 30143 ft 420 kts 323°
2026-05-04 18:45 43.38331 26.84719 29594 ft 417 kts 323°
2026-05-04 18:45 43.40638 26.82325 29088 ft 414 kts 323°
2026-05-04 18:46 43.42924 26.79950 28571 ft 410 kts 323°
2026-05-04 18:46 43.45187 26.77595 28088 ft 406 kts 323°
2026-05-04 18:46 43.47428 26.75263 27588 ft 403 kts 323°
2026-05-04 18:46 43.49658 26.72940 27099 ft 400 kts 323°
2026-05-04 18:47 43.51867 26.70636 26592 ft 397 kts 323°
2026-05-04 18:47 43.54055 26.68352 26128 ft 394 kts 323°
2026-05-04 18:47 43.56233 26.66076 25655 ft 391 kts 324°
2026-05-04 18:47 43.58393 26.63817 25181 ft 389 kts 324°
2026-05-04 18:48 43.60541 26.61568 24704 ft 387 kts 324°
2026-05-04 18:48 43.62675 26.59332 24244 ft 384 kts 324°
2026-05-04 18:48 43.64802 26.57102 23775 ft 383 kts 324°
2026-05-04 18:48 43.66916 26.54883 23249 ft 381 kts 324°
2026-05-04 18:49 43.69019 26.52674 22727 ft 378 kts 324°
2026-05-04 18:49 43.71109 26.50476 22250 ft 375 kts 324°
2026-05-04 18:49 43.73179 26.48297 21793 ft 372 kts 325°
2026-05-04 18:49 43.75228 26.46138 21303 ft 369 kts 325°
2026-05-04 18:50 43.77265 26.43990 20864 ft 367 kts 325°
2026-05-04 18:50 43.79286 26.41858 20412 ft 364 kts 325°
2026-05-04 18:50 43.81296 26.39735 19968 ft 362 kts 325°
2026-05-04 18:50 43.83293 26.37623 19523 ft 360 kts 326°
2026-05-04 18:51 43.85274 26.35528 19207 ft 356 kts 326°
2026-05-04 18:51 43.87229 26.33458 18947 ft 351 kts 326°
2026-05-04 18:51 43.89154 26.31415 18635 ft 345 kts 326°
2026-05-04 18:51 43.91011 26.29441 17856 ft 332 kts 326°
2026-05-04 18:52 43.92840 26.27501 16778 ft 328 kts 327°
2026-05-04 18:52 43.94654 26.25577 15747 ft 333 kts 327°
2026-05-04 18:52 43.96472 26.23649 15325 ft 332 kts 327°
2026-05-04 18:52 43.98325 26.21678 14875 ft 331 kts 327°
2026-05-04 18:53 44.00173 26.19810 14447 ft 327 kts 330°
2026-05-04 18:53 44.01992 26.18054 14035 ft 313 kts 330°
2026-05-04 18:53 44.03748 26.16368 13632 ft 310 kts 330°
2026-05-04 18:53 44.05512 26.14663 13206 ft 308 kts 330°
2026-05-04 18:54 44.07264 26.12957 12793 ft 307 kts 330°
2026-05-04 18:54 44.09006 26.11255 12402 ft 305 kts 330°
2026-05-04 18:54 44.10606 26.09325 11938 ft 312 kts 313°
2026-05-04 18:54 44.11625 26.06608 11424 ft 318 kts 295°
2026-05-04 18:55 44.12509 26.03822 10948 ft 314 kts 303°
2026-05-04 18:55 44.14679 25.98752 10449 ft 307 kts 307°
2026-05-04 18:55 44.15784 25.96219 10181 ft 305 kts 306°
2026-05-04 18:56 44.16869 25.93686 9901 ft 304 kts 306°
2026-05-04 18:56 44.17903 25.91225 9655 ft 286 kts 305°
2026-05-04 18:56 44.18895 25.88841 9474 ft 282 kts 305°
2026-05-04 18:56 44.19858 25.86511 9142 ft 276 kts 305°
2026-05-04 18:57 44.20800 25.84222 9044 ft 269 kts 305°
2026-05-04 18:57 44.21728 25.81965 9049 ft 269 kts 305°
2026-05-04 18:57 44.22659 25.79696 9052 ft 271 kts 305°
2026-05-04 18:57 44.23595 25.77410 9033 ft 271 kts 305°
2026-05-04 18:58 44.24530 25.75121 9034 ft 272 kts 305°
2026-05-04 18:58 44.25464 25.72832 9041 ft 271 kts 305°
2026-05-04 18:58 44.26397 25.70539 9044 ft 271 kts 305°
2026-05-04 18:58 44.27329 25.68248 9042 ft 271 kts 305°
2026-05-04 18:59 44.28262 25.65952 9037 ft 271 kts 305°
2026-05-04 18:59 44.29192 25.63664 9042 ft 271 kts 305°
2026-05-04 18:59 44.30125 25.61375 9039 ft 268 kts 307°
2026-05-04 18:59 44.31384 25.59535 8542 ft 264 kts 338°
2026-05-04 19:00 44.33103 25.59073 8198 ft 249 kts
2026-05-04 19:00 44.34774 25.59612 7890 ft 245 kts 19°
2026-05-04 19:00 44.36365 25.60467 7563 ft 245 kts 23°
2026-05-04 19:00 44.37922 25.61412 7211 ft 241 kts 28°
2026-05-04 19:01 44.39279 25.62829 6720 ft 247 kts 41°
2026-05-04 19:01 44.40531 25.64485 6421 ft 247 kts 43°
2026-05-04 19:01 44.41747 25.66128 5916 ft 242 kts 42°
2026-05-04 19:01 44.42967 25.67755 5524 ft 243 kts 42°
2026-05-04 19:02 44.44209 25.69391 5198 ft 247 kts 42°
2026-05-04 19:02 44.45483 25.71052 4875 ft 252 kts 42°
2026-05-04 19:02 44.46774 25.72728 4554 ft 254 kts 42°
2026-05-04 19:02 44.48075 25.74409 4204 ft 255 kts 41°
2026-05-04 19:03 44.49343 25.76041 3991 ft 240 kts 41°
2026-05-04 19:03 44.50556 25.77601 3679 ft 235 kts 41°
2026-05-04 19:03 44.51756 25.79141 3505 ft 232 kts 41°
2026-05-04 19:03 44.52936 25.80658 3317 ft 229 kts 41°
2026-05-04 19:04 44.54084 25.82185 3121 ft 223 kts 49°
2026-05-04 19:04 44.54687 25.84146 2851 ft 221 kts 82°
2026-05-04 19:04 44.54834 25.86265 2653 ft 216 kts 83°
2026-05-04 19:04 44.54994 25.88307 2557 ft 205 kts 82°
2026-05-04 19:05 44.55095 25.89605 2495 ft 197 kts 83°
2026-05-04 19:05 44.55285 25.92114 2316 ft 192 kts 83°
2026-05-04 19:05 44.55417 25.93855 2072 ft 167 kts 83°
2026-05-04 19:05 44.55530 25.95357 1854 ft 142 kts 83°
2026-05-04 19:06 44.55599 25.96269 1785 ft 142 kts 84°
2026-05-04 19:06 44.55707 25.97690 1625 ft 149 kts 84°
2026-05-04 19:06 44.55816 25.99120 1434 ft 145 kts 84°
2026-05-04 19:06 44.55920 26.00492 1266 ft 142 kts 84°
2026-05-04 19:07 44.56024 26.01860 1090 ft 140 kts 85°
2026-05-04 19:07 44.56126 26.03217 930 ft 137 kts 85°
2026-05-04 19:07 44.56226 26.04517 761 ft 135 kts 84°
2026-05-04 19:07 44.56334 26.05840 602 ft 135 kts 85°
2026-05-04 19:08 44.56430 26.07149 418 ft 134 kts 86°
2026-05-04 19:08 44.56526 26.08432 330 ft 124 kts 85°
2026-05-04 19:08 44.56600 26.09439 323 ft 80 kts 84°
2026-05-04 19:08 44.56638 26.09955 326 ft 27 kts 84°
2026-05-04 19:09 44.56658 26.10224 325 ft 30 kts 83°
2026-05-04 19:09 44.56682 26.10516 325 ft 30 kts 83°
2026-05-04 19:09 44.56725 26.10741 323 ft 23 kts 39°
2026-05-04 19:09 44.56845 26.10756 322 ft 16 kts 353°
2026-05-04 19:10 44.56959 26.10729 322 ft 17 kts 341°
2026-05-04 19:10 44.57040 26.10616 323 ft 17 kts 303°
2026-05-04 19:10 44.57063 26.10453 322 ft 17 kts 269°
2026-05-04 19:10 44.57060 26.10283 324 ft 17 kts 263°
2026-05-04 19:11 44.57044 26.10111 324 ft 18 kts 263°
2026-05-04 19:11 44.57034 26.10001 324 ft 9 kts 263°
2026-05-04 19:11 44.57057 26.09908 322 ft 14 kts 324°
2026-05-04 19:11 44.57168 26.09881 323 ft 17 kts 354°
2026-05-04 19:12 44.57284 26.09864 322 ft 17 kts 354°
2026-05-04 19:12 44.57514 26.09834 323 ft 13 kts 351°
2026-05-04 19:12 44.57579 26.09757 322 ft 13 kts 289°
2026-05-04 19:13 44.57579 26.09624 323 ft 15 kts 265°
2026-05-04 19:13 44.57565 26.09414 322 ft 28 kts 264°
2026-05-04 19:13 44.57544 26.09139 325 ft 28 kts 264°
2026-05-04 19:13 44.57524 26.08884 321 ft 26 kts 264°
2026-05-04 19:14 44.57505 26.08636 325 ft 26 kts 264°
2026-05-04 19:14 44.57436 26.08482 321 ft 21 kts 188°
2026-05-04 19:14 44.57298 26.08494 323 ft 16 kts 175°
2026-05-04 19:14 44.57232 26.08418 322 ft 14 kts 261°
2026-05-04 19:15 44.57183 26.08300 323 ft 13 kts 221°
2026-05-04 19:15 44.57142 26.08252 322 ft 0 kts 219°